SCP
0 0 0 0 0 0 0 0 0 0 0 0 0 0 0 0 0 0 0 0 0 0 0 0 0 0 0 0 0 0 0 0 0 0 0 0 0 0 0 0 0 0 0 0
0 0 0 0 0 0 0 0 0 0 0 0 0 0 0 0 0 0 0 0 0 0 0 0 0 0 0 0 0 0 0 0 0 0 0 0 0 0 0 0 0 0 0 0
0 0 0 0 0 0 0 0 0 0 0 0 0 0 0 0 0 0 0 0 0 0 0 0 0 0 0 0 0 0 0 0 0 0 0 0 0 0 0 0 0 0 0 0
0 0 0 0 0 0 0 0 0 0 0 0 0 0 0 0 0 0 0 0 0 0 0 0 0 0 0 0 0 0 0 0 0 0 0 0 0 0 0 0 0 0 0 0
0 0 0 0 0 0 0 0 0 0 0 0 0 0 0 0 0 0 0 0 0 0 0 0 0 0 0 0 0 0 0 0 0 0 0 0 0 0 0 0 0 0 0 0
0 0 0 0 0 0 0 0 0 0 0 0 0 0 0 0 0 0 0 0 0 0 0 0 0 0 0 0 0 0 0 0 0 0 0 0 0 0 0 0 0 0 0 0
0 0 0 0 0 0 0 0 0 0 0 0 0 0 0 0 0 0 0 0 0 0 0 0 0 0 0 0 0 0 0 0 0 0 0 0 0 0 0 0 0 0 0 0
0 -0 0 0 0 0 0 0 0 0 0 0 0 0 0 -0 0 0 0 0 0 0 0 0 0 0 0 0 0 0 0 0 0 0 0 0 0 0 0 0 0 0 0 0
0 0 0 0 0 0 0 0 0 0 0 0 0 0 0 0 0 -0 0 -0 0 0 0 0 0 0 0 0 0 0 0 0 0 0 0 0 0 0 0 0 0 0 0 0
0 0 -0 0 0 0 0 0 0 0 0 0 0 0 0 0 0 0 0 0 0 0 0 0 0 0 0 0 0 0 0 0 0 0 0 0 0 0 0 0 0 0 0 0
0 0 0 -0 0 0 0 0 0 0 0 0 0 0 0 0 0 0 0 0 0 0 0 0 0 0 0 0 0 0 0 0 0 0 0 0 0 0 0 0 0 0 0 0
0 0 0 0 0 0 0 0 0 0 0 0 0 0 0 0 0 0 0 0 0 0 0 0 0 0 0 0 0 0 0 0 0 0 0 0 0 0 0 0 0 0 0 0
0 0 0 0 -0 0 0 0 0 0 0 0 0 0 0 0 0 0 0 0 0 0 0 0 0 0 0 0 0 0 0 0 0 0 0 0 0 0 0 0 0 0 0 0
0 0 0 0 0 0 0 0 0 0 0 0 0 0 0 0 0 0 0 0 0 0 0 0 0 0 0 0 0 0 0 0 0 0 0 0 0 0 0 0 0 0 0 0
0 0 0 0 0 0 0 -0 0 0 0 0 0 0 0 0 0 0 0 0 0 0 0 0 0 0 0 0 0 0 0 0 0 0 0 0 0 0 0 0 0 0 0 0
0 0 0 0 0 0 0 -0 -0 0 0 0 0 0 0 0 0 0 0 0 0 0 0 0 0 0 0 0 0 0 0 0 0 0 0 0 0 0 0 0 0 0 0 0
0 0 0 0 0 0 0 0 0 0 0 0 0 0 0 0 0 0 0 0 0 0 0 0 0 0 0 0 0 0 -0 0 0 0 0 0 0 0 0 0 0 0 0 0
0 0 0 0 0 0 0 0 -0 0 0 0 0 0 0 0 0 0 0 0 0 0 0 0 0 0 0 0 0 0 0 0 0 0 0 0 0 0 0 0 0 0 0 0
0 0 0 0 0 0 0 -0 -0 0 0 0 0 0 0 0 0 0 0 0 0 0 0 0 0 0 0 0 0 0 0 0 0 0 0 0 0 0 0 0 0 0 0 0
0 0 0 0 0 0 0 -0 0 0 0 0 0 0 0 0 0 0 0 0 0 0 0 0 0 0 0 0 0 0 0 0 0 0 0 0 0 0 0 0 0 0 0 0
0 0 0 0 0 0 0 0 0 0 0 0 0 0 0 0 0 0 0 0 0 0 0 0 0 0 0 0 0 0 0 0 0 0 0 0 0 0 0 0 0 0 0 0
0 0 0 0 0 0 0 0 0 0 0 0 0 0 0 0 0 0 0 0 0 0 0 0 0 0 0 0 0 0 0 0 0 0 0 0 0 0 0 0 0 0 0 0
0 -0 0 0 0 0 0 0 0 0 0 0 0 0 0 0 0 0 0 0 0 0 0 0 0 0 0 0 0 0 0 0 0 0 0 0 0 0 0 0 0 0 0 0
0 0 0 0 0 -0 0 0 0 0 0 0 0 0 0 0 0 0 0 0 0 0 0 0 0 0 0 0 0 0 0 0 0 0 0 0 0 0 0 0 0 0 0 0
0 0 0 0 0 0 0 0 0 0 0 0 0 0 0 0 0 0 0 0 0 0 0 0 0 0 0 0 0 0 0 0 0 0 0 0 0 0 0 0 0 0 0 0
0 0 0 0 0 0 0 0 0 0 0 0 0 0 0 0 0 0 0 0 0 0 0 0 0 0 0 0 0 0 0 0 0 0 0 0 0 0 0 0 0 0 0 0
0 0 0 0 0 0 0 0 0 0 0 0 0 0 0 0 0 0 0 0 0 0 0 0 0 0 0 0 0 0 0 0 0 0 0 0 0 0 0 0 0 0 0 0
Wind_Speed_500mb
46 44 45 43 36 34 27 32 11 30 46 34 11 31 51 34 34 35 35 24 49 38 36 28 32 28 16 49 42 37 21 2 10 19 7 0 9 15 18 9 12 13 4 40
55 55 44 41 36 28 25 16 34 40 60 24 28 12 49 50 33 33 28 30 34 32 35 36 40 22 19 50 34 36 23 10 1 8 3 4 12 17 32 27 3 41 10 30
48 55 46 42 37 31 30 15 8 34 53 42 29 40 47 43 61 44 62 35 32 16 29 39 12 31 11 57 40 39 43 11 21 35 13 16 14 23 35 37 21 13 50 38
51 45 40 45 45 33 34 19 15 13 8 26 38 34 17 43 34 65 58 43 40 40 22 41 48 19 4 8 28 24 25 22 23 43 37 12 12 20 39 48 57 31 54 48
56 47 44 42 58 36 44 14 16 13 15 34 18 27 23 30 37 29 57 50 55 55 45 46 38 28 32 14 11 16 2 17 23 44 25 29 38 29 35 45 49 53 61 68
34 59 53 48 67 46 49 40 45 23 12 11 12 10 8 10 22 49 68 61 51 55 71 80 67 43 29 14 24 20 14 6 10 38 17 26 22 70 46 48 51 47 51 72
49 38 40 56 61 63 59 44 32 11 24 17 18 22 31 35 30 10 7 27 33 69 34 60 25 7 5 18 18 31 21 27 16 21 11 23 24 19 52 57 60 50 54 11
60 63 35 45 50 61 59 63 37 20 8 14 20 32 24 22 25 9 11 17 19 1 17 12 6 4 9 10 2 26 31 25 14 14 25 27 29 10 18 24 51 47 49 28
56 43 60 40 44 47 58 65 56 26 6 18 19 12 38 28 20 6 9 25 30 12 5 1 13 16 9 13 7 5 5 34 25 8 14 22 7 8 3 16 33 24 38 35
46 46 49 58 28 38 43 54 57 34 13 16 17 10 8 8 19 5 8 17 10 27 8 10 8 6 1 12 15 10 7 10 30 29 15 9 9 11 5 12 11 5 8 30
44 49 46 54 48 34 33 48 53 51 19 26 22 23 17 7 9 10 17 12 5 4 9 8 7 6 8 6 7 11 13 14 8 9 8 17 15 2 18 6 3 6 18 32
49 48 49 48 54 44 31 46 57 59 22 12 21 36 31 33 27 7 33 2 9 17 8 7 5 4 5 8 6 4 9 11 10 13 6 2 13 2 5 6 13 15 22 29
49 48 48 50 49 52 43 49 63 50 23 22 28 26 32 33 28 30 14 10 13 11 5 5 5 6 4 10 10 6 5 3 4 8 3 4 13 15 13 9 8 9 8 24
48 48 50 50 50 59 53 59 58 48 11 6 11 23 22 28 30 27 31 15 20 14 11 2 4 5 3 4 2 3 5 12 9 3 3 3 22 30 25 15 9 7 11 18
49 50 47 51 53 54 53 56 59 72 37 5 7 8 16 18 29 26 24 15 19 10 4 2 2 5 7 2 3 4 10 10 8 7 21 10 20 47 44 36 33 22 18 15
54 51 50 48 51 48 49 31 68 77 63 12 5 9 10 18 20 15 15 18 13 8 6 4 4 5 5 5 5 1 23 28 35 12 37 27 10 38 47 48 40 28 18 17
42 44 49 48 51 49 47 15 13 82 75 19 6 6 10 29 29 20 12 9 5 7 7 4 6 4 2 2 5 7 24 24 16 33 42 19 24 21 47 44 38 32 21 26
34 31 35 47 48 50 60 62 65 76 60 19 9 5 11 27 11 8 13 9 7 5 6 6 4 8 3 5 9 11 15 22 15 35 11 10 27 15 22 27 28 29 31 32
27 29 30 37 50 48 51 47 46 74 30 8 7 16 10 30 9 11 8 8 3 2 3 3 9 2 6 5 4 23 17 10 4 22 19 16 17 17 13 12 10 8 9 17
29 25 18 18 40 62 28 20 34 39 26 17 5 18 9 30 14 6 7 6 6 4 7 14 5 6 13 13 15 9 4 3 5 7 8 10 11 13 12 9 9 14 17 21
42 16 21 28 28 40 25 11 11 14 10 15 11 12 18 19 7 6 8 6 4 6 8 9 3 6 5 3 1 3 2 2 7 9 9 5 6 7 12 14 14 17 19 20
52 36 29 30 17 17 16 14 6 5 10 10 7 12 21 18 16 8 7 6 5 8 14 7 5 4 11 10 7 6 8 11 14 17 21 23 24 24 24 25 26 25 25 26
48 22 16 19 11 15 15 10 7 5 5 21 23 13 18 11 8 6 6 8 8 19 5 8 3 12 13 15 12 5 4 1 4 8 13 15 17 19 20 21 21 22 22 22
18 18 12 9 8 10 6 10 10 16 22 32 41 9 6 11 5 6 9 6 8 8 8 10 3 11 15 14 14 10 9 7 7 7 7 7 7 6 7 9 12 12 13 13
8 5 11 4 3 7 12 9 18 15 55 51 20 14 9 5 8 5 8 8 8 9 8 5 9 12 15 17 18 17 15 14 13 13 12 12 12 10 8 7 4 3 3 3
8 17 6 4 4 5 15 17 19 32 45 40 14 6 6 5 10 8 5 16 7 4 4 12 6 14 20 21 22 23 23 22 22 20 19 18 17 16 17 15 12 9 7 6
9 6 21 12 18 9 11 20 14 10 18 4 6 6 5 8 7 6 9 6 5 14 19 14 15 17 20 21 23 25 26 27 27 26 23 22 22 20 18 15 18 15 13 10
Wind_Direction_500mb
280 272 252 260 257 265 261 245 233 235 205 202 212 220 222 224 227 244 243 255 245 247 220 194 197 216 199 182 157 188 184 165 173 207 123 130 223 184 192 170 225 235 217 258
265 274 264 253 247 249 246 244 249 243 205 221 220 228 237 238 221 219 237 240 238 238 226 230 206 206 225 179 170 171 166 184 158 313 93 18 199 200 207 218 69 233 198 256
261 270 268 239 235 235 233 245 243 218 225 237 232 225 232 233 227 239 221 229 248 232 237 234 214 212 193 178 184 189 160 159 196 228 222 144 194 202 209 203 227 201 233 247
259 256 258 234 233 229 225 225 240 241 211 225 231 242 237 230 226 217 215 229 217 227 230 240 237 193 67 19 181 176 178 212 221 241 238 231 189 198 206 210 224 213 251 242
254 252 249 244 230 225 223 224 230 227 281 238 253 238 214 232 230 218 220 223 218 220 225 227 219 218 212 188 174 170 290 234 212 246 225 239 252 240 211 222 231 239 251 255
269 252 250 245 224 237 213 238 241 259 213 228 234 186 205 252 254 240 232 224 226 222 223 225 231 235 241 207 174 176 147 136 165 246 209 242 250 235 231 228 226 222 238 249
274 244 251 237 226 232 239 228 215 214 252 244 236 236 210 230 228 311 351 257 243 232 228 232 241 195 247 229 199 188 181 194 200 247 146 219 247 197 218 226 235 225 240 237
272 276 278 222 233 232 239 239 212 194 246 236 249 245 232 214 225 218 263 246 316 101 225 230 177 143 186 198 244 194 191 184 214 223 228 260 280 182 148 182 244 227 235 236
256 264 269 223 231 235 235 239 230 213 175 223 225 249 230 234 235 138 179 194 215 263 88 185 221 217 164 191 173 338 190 198 204 171 223 228 294 306 137 99 262 192 205 218
257 257 267 268 234 238 240 232 222 218 211 242 217 217 224 220 198 142 131 158 177 183 179 204 201 211 205 162 169 156 158 193 208 219 229 268 216 232 144 144 245 300 234 164
256 254 255 270 266 241 256 240 232 217 212 234 237 225 202 214 216 186 147 117 172 149 196 209 191 171 200 148 129 169 168 173 193 215 232 248 177 35 169 210 53 167 155 166
255 253 254 250 260 262 254 259 242 229 221 219 236 236 236 239 241 189 180 281 161 174 172 187 140 162 155 170 203 122 198 193 186 201 203 256 168 247 169 141 145 151 165 174
259 257 252 249 246 257 247 260 228 217 231 243 252 242 230 224 229 233 180 221 207 200 192 142 145 185 143 173 227 133 242 180 151 135 184 186 211 177 184 143 121 139 171 191
258 255 253 243 241 242 246 246 221 226 172 238 211 220 215 217 213 215 219 222 201 191 167 130 155 153 165 172 101 139 170 141 135 24 319 312 252 221 204 204 231 263 208 189
259 255 255 243 241 238 246 267 250 221 201 189 139 198 217 213 207 210 214 194 172 162 147 125 129 101 127 74 58 232 192 159 170 219 183 180 205 209 212 219 227 224 215 208
257 247 247 241 237 240 241 253 255 226 211 187 166 201 194 184 181 187 179 172 166 128 117 121 113 125 90 185 199 199 184 178 169 184 183 192 185 209 209 214 226 230 244 230
254 252 239 236 238 236 223 204 253 200 192 164 141 172 149 147 150 154 163 172 136 116 124 116 125 121 139 90 213 207 199 191 186 169 177 201 209 215 212 223 237 252 251 207
256 252 246 243 235 243 249 241 247 194 186 174 169 114 143 164 148 127 148 142 140 105 122 129 120 116 136 244 234 254 193 184 177 180 147 185 197 197 199 212 227 228 218 210
258 262 272 257 231 227 234 246 239 192 187 176 142 150 166 162 127 125 129 150 87 103 103 192 140 155 212 338 36 93 75 83 163 178 175 122 138 180 185 168 167 184 200 222
246 257 261 226 216 216 213 226 195 205 194 192 172 121 138 162 144 154 107 156 144 140 227 146 127 240 113 61 72 89 95 168 119 175 207 254 249 233 229 244 268 273 269 265
254 239 233 240 190 172 184 240 182 196 152 157 131 130 133 167 137 129 146 169 170 148 240 132 225 278 96 331 270 321 295 240 217 212 207 192 218 247 249 254 261 259 252 252
238 222 220 192 208 179 217 184 187 196 150 132 127 129 114 130 142 111 188 140 149 185 143 109 235 86 37 16 354 314 289 265 252 245 240 242 243 245 254 259 257 255 258 258
201 202 222 150 195 229 198 155 119 152 208 148 153 133 132 123 129 89 137 129 178 128 106 210 108 87 26 13 5 4 3 282 202 215 228 231 235 238 239 244 252 260 265 269
197 187 213 186 169 234 203 156 155 138 138 137 133 109 119 123 97 137 131 94 130 167 146 228 79 25 13 22 25 32 43 66 93 104 114 137 161 187 212 231 239 248 259 265
249 221 161 147 58 28 327 34 103 120 142 135 107 76 87 95 110 80 120 154 166 184 195 78 46 21 31 40 46 52 63 74 84 89 94 100 106 112 115 118 119 140 180 202
45 15 100 329 105 41 18 32 79 116 129 122 88 109 106 103 122 148 114 151 162 96 72 70 63 49 48 56 60 62 65 70 74 80 84 88 96 96 90 87 86 83 80 88
38 12 28 57 62 48 45 2 14 89 166 90 106 98 91 103 97 76 21 56 68 94 83 67 64 61 57 61 71 79 82 82 80 78 80 80 77 73 77 80 81 79 80 80
Wind_Speed_850mb
46 44 45 43 36 34 27 32 11 30 46 34 11 31 51 34 34 35 35 24 49 38 36 28 32 28 16 49 42 37 21 2 10 19 7 0 9 15 18 9 12 13 4 40
55 55 44 41 36 28 25 16 34 40 60 24 28 12 49 50 33 33 28 30 34 32 35 36 40 22 19 50 34 36 23 10 1 8 3 4 12 17 32 27 3 41 10 30
48 55 46 42 37 31 30 15 8 34 53 42 29 40 47 43 61 44 62 35 32 16 29 39 12 31 11 57 40 39 43 11 21 35 13 16 14 23 35 37 21 13 50 38
51 45 40 45 45 33 34 19 15 13 8 26 38 34 17 43 34 65 58 43 40 40 22 41 48 19 4 8 28 24 25 22 23 43 37 12 12 20 39 48 57 31 54 48
56 47 44 42 58 36 44 14 16 13 15 34 18 27 23 30 37 29 57 50 55 55 45 46 38 28 32 14 11 16 2 17 23 44 25 29 38 29 35 45 49 53 61 68
34 59 53 48 67 46 49 40 45 23 12 11 12 10 8 10 22 49 68 61 51 55 71 80 67 43 29 14 24 20 14 6 10 38 17 26 22 70 46 48 51 47 51 72
49 38 40 56 61 63 59 44 32 11 24 17 18 22 31 35 30 10 7 27 33 69 34 60 25 7 5 18 18 31 21 27 16 21 11 23 24 19 52 57 60 50 54 11
60 63 35 45 50 61 59 63 37 20 8 14 20 32 24 22 25 9 11 17 19 1 17 12 6 4 9 10 2 26 31 25 14 14 25 27 29 10 18 24 51 47 49 28
56 43 60 40 44 47 58 65 56 26 6 18 19 12 38 28 20 6 9 25 30 12 5 1 13 16 9 13 7 5 5 34 25 8 14 22 7 8 3 16 33 24 38 35
46 46 49 58 28 38 43 54 57 34 13 16 17 10 8 8 19 5 8 17 10 27 8 10 8 6 1 12 15 10 7 10 30 29 15 9 9 11 5 12 11 5 8 30
44 49 46 54 48 34 33 48 53 51 19 26 22 23 17 7 9 10 17 12 5 4 9 8 7 6 8 6 7 11 13 14 8 9 8 17 15 2 18 6 3 6 18 32
49 48 49 48 54 44 31 46 57 59 22 12 21 36 31 33 27 7 33 2 9 17 8 7 5 4 5 8 6 4 9 11 10 13 6 2 13 2 5 6 13 15 22 29
49 48 48 50 49 52 43 49 63 50 23 22 28 26 32 33 28 30 14 10 13 11 5 5 5 6 4 10 10 6 5 3 4 8 3 4 13 15 13 9 8 9 8 24
48 48 50 50 50 59 53 59 58 48 11 6 11 23 22 28 30 27 31 15 20 14 11 2 4 5 3 4 2 3 5 12 9 3 3 3 22 30 25 15 9 7 11 18
49 50 47 51 53 54 53 56 59 72 37 5 7 8 16 18 29 26 24 15 19 10 4 2 2 5 7 2 3 4 10 10 8 7 21 10 20 47 44 36 33 22 18 15
54 51 50 48 51 48 49 31 68 77 63 12 5 9 10 18 20 15 15 18 13 8 6 4 4 5 5 5 5 1 23 28 35 12 37 27 10 38 47 48 40 28 18 17
42 44 49 48 51 49 47 15 13 82 75 19 6 6 10 29 29 20 12 9 5 7 7 4 6 4 2 2 5 7 24 24 16 33 42 19 24 21 47 44 38 32 21 26
34 31 35 47 48 50 60 62 65 76 60 19 9 5 11 27 11 8 13 9 7 5 6 6 4 8 3 5 9 11 15 22 15 35 11 10 27 15 22 27 28 29 31 32
27 29 30 37 50 48 51 47 46 74 30 8 7 16 10 30 9 11 8 8 3 2 3 3 9 2 6 5 4 23 17 10 4 22 19 16 17 17 13 12 10 8 9 17
29 25 18 18 40 62 28 20 34 39 26 17 5 18 9 30 14 6 7 6 6 4 7 14 5 6 13 13 15 9 4 3 5 7 8 10 11 13 12 9 9 14 17 21
42 16 21 28 28 40 25 11 11 14 10 15 11 12 18 19 7 6 8 6 4 6 8 9 3 6 5 3 1 3 2 2 7 9 9 5 6 7 12 14 14 17 19 20
52 36 29 30 17 17 16 14 6 5 10 10 7 12 21 18 16 8 7 6 5 8 14 7 5 4 11 10 7 6 8 11 14 17 21 23 24 24 24 25 26 25 25 26
48 22 16 19 11 15 15 10 7 5 5 21 23 13 18 11 8 6 6 8 8 19 5 8 3 12 13 15 12 5 4 1 4 8 13 15 17 19 20 21 21 22 22 22
18 18 12 9 8 10 6 10 10 16 22 32 41 9 6 11 5 6 9 6 8 8 8 10 3 11 15 14 14 10 9 7 7 7 7 7 7 6 7 9 12 12 13 13
8 5 11 4 3 7 12 9 18 15 55 51 20 14 9 5 8 5 8 8 8 9 8 5 9 12 15 17 18 17 15 14 13 13 12 12 12 10 8 7 4 3 3 3
8 17 6 4 4 5 15 17 19 32 45 40 14 6 6 5 10 8 5 16 7 4 4 12 6 14 20 21 22 23 23 22 22 20 19 18 17 16 17 15 12 9 7 6
9 6 21 12 18 9 11 20 14 10 18 4 6 6 5 8 7 6 9 6 5 14 19 14 15 17 20 21 23 25 26 27 27 26 23 22 22 20 18 15 18 15 13 10
Wind_Direction_850mb
280 272 252 260 257 265 261 245 233 235 205 202 212 220 222 224 227 244 243 255 245 247 220 194 197 216 199 182 157 188 184 165 173 207 123 130 223 184 192 170 225 235 217 258
265 274 264 253 247 249 246 244 249 243 205 221 220 228 237 238 221 219 237 240 238 238 226 230 206 206 225 179 170 171 166 184 158 313 93 18 199 200 207 218 69 233 198 256
261 270 268 239 235 235 233 245 243 218 225 237 232 225 232 233 227 239 221 229 248 232 237 234 214 212 193 178 184 189 160 159 196 228 222 144 194 202 209 203 227 201 233 247
259 256 258 234 233 229 225 225 240 241 211 225 231 242 237 230 226 217 215 229 217 227 230 240 237 193 67 19 181 176 178 212 221 241 238 231 189 198 206 210 224 213 251 242
254 252 249 244 230 225 223 224 230 227 281 238 253 238 214 232 230 218 220 223 218 220 225 227 219 218 212 188 174 170 290 234 212 246 225 239 252 240 211 222 231 239 251 255
269 252 250 245 224 237 213 238 241 259 213 228 234 186 205 252 254 240 232 224 226 222 223 225 231 235 241 207 174 176 147 136 165 246 209 242 250 235 231 228 226 222 238 249
274 244 251 237 226 232 239 228 215 214 252 244 236 236 210 230 228 311 351 257 243 232 228 232 241 195 247 229 199 188 181 194 200 247 146 219 247 197 218 226 235 225 240 237
272 276 278 222 233 232 239 239 212 194 246 236 249 245 232 214 225 218 263 246 316 101 225 230 177 143 186 198 244 194 191 184 214 223 228 260 280 182 148 182 244 227 235 236
256 264 269 223 231 235 235 239 230 213 175 223 225 249 230 234 235 138 179 194 215 263 88 185 221 217 164 191 173 338 190 198 204 171 223 228 294 306 137 99 262 192 205 218
257 257 267 268 234 238 240 232 222 218 211 242 217 217 224 220 198 142 131 158 177 183 179 204 201 211 205 162 169 156 158 193 208 219 229 268 216 232 144 144 245 300 234 164
256 254 255 270 266 241 256 240 232 217 212 234 237 225 202 214 216 186 147 117 172 149 196 209 191 171 200 148 129 169 168 173 193 215 232 248 177 35 169 210 53 167 155 166
255 253 254 250 260 262 254 259 242 229 221 219 236 236 236 239 241 189 180 281 161 174 172 187 140 162 155 170 203 122 198 193 186 201 203 256 168 247 169 141 145 151 165 174
259 257 252 249 246 257 247 260 228 217 231 243 252 242 230 224 229 233 180 221 207 200 192 142 145 185 143 173 227 133 242 180 151 135 184 186 211 177 184 143 121 139 171 191
258 255 253 243 241 242 246 246 221 226 172 238 211 220 215 217 213 215 219 222 201 191 167 130 155 153 165 172 101 139 170 141 135 24 319 312 252 221 204 204 231 263 208 189
259 255 255 243 241 238 246 267 250 221 201 189 139 198 217 213 207 210 214 194 172 162 147 125 129 101 127 74 58 232 192 159 170 219 183 180 205 209 212 219 227 224 215 208
257 247 247 241 237 240 241 253 255 226 211 187 166 201 194 184 181 187 179 172 166 128 117 121 113 125 90 185 199 199 184 178 169 184 183 192 185 209 209 214 226 230 244 230
254 252 239 236 238 236 223 204 253 200 192 164 141 172 149 147 150 154 163 172 136 116 124 116 125 121 139 90 213 207 199 191 186 169 177 201 209 215 212 223 237 252 251 207
256 252 246 243 235 243 249 241 247 194 186 174 169 114 143 164 148 127 148 142 140 105 122 129 120 116 136 244 234 254 193 184 177 180 147 185 197 197 199 212 227 228 218 210
258 262 272 257 231 227 234 246 239 192 187 176 142 150 166 162 127 125 129 150 87 103 103 192 140 155 212 338 36 93 75 83 163 178 175 122 138 180 185 168 167 184 200 222
246 257 261 226 216 216 213 226 195 205 194 192 172 121 138 162 144 154 107 156 144 140 227 146 127 240 113 61 72 89 95 168 119 175 207 254 249 233 229 244 268 273 269 265
254 239 233 240 190 172 184 240 182 196 152 157 131 130 133 167 137 129 146 169 170 148 240 132 225 278 96 331 270 321 295 240 217 212 207 192 218 247 249 254 261 259 252 252
238 222 220 192 208 179 217 184 187 196 150 132 127 129 114 130 142 111 188 140 149 185 143 109 235 86 37 16 354 314 289 265 252 245 240 242 243 245 254 259 257 255 258 258
201 202 222 150 195 229 198 155 119 152 208 148 153 133 132 123 129 89 137 129 178 128 106 210 108 87 26 13 5 4 3 282 202 215 228 231 235 238 239 244 252 260 265 269
197 187 213 186 169 234 203 156 155 138 138 137 133 109 119 123 97 137 131 94 130 167 146 228 79 25 13 22 25 32 43 66 93 104 114 137 161 187 212 231 239 248 259 265
249 221 161 147 58 28 327 34 103 120 142 135 107 76 87 95 110 80 120 154 166 184 195 78 46 21 31 40 46 52 63 74 84 89 94 100 106 112 115 118 119 140 180 202
45 15 100 329 105 41 18 32 79 116 129 122 88 109 106 103 122 148 114 151 162 96 72 70 63 49 48 56 60 62 65 70 74 80 84 88 96 96 90 87 86 83 80 88
38 12 28 57 62 48 45 2 14 89 166 90 106 98 91 103 97 76 21 56 68 94 83 67 64 61 57 61 71 79 82 82 80 78 80 80 77 73 77 80 81 79 80 80